Location: Lombard
(41.8800°N, 88.0080°W)
Time: 13:16:37
(UTC-05:00)

DELFI C3 - Visible Passes

Search period start: 16 May 2022 00:00
Search period end: 26 May 2022 00:00
Orbit: 518 x 536 km, 97.3° (Epoch: 16 May)

Date Brightness Start Highest point End Pass type
(mag) Time Alt. Az. Time Alt. Az. Time Alt. Az.
16 May ? 21:01:47 10° W 21:02:16 10° W 21:02:45 10° W visible
17 May ? 20:48:46 10° SW 20:50:50 14° W 20:52:53 10° WNW visible
25 May ? 20:51:16 10° WSW 20:53:03 13° W 20:54:51 10° WNW visible
